When you browse on this site, cookies collect data to enhance your experience and personalize the content and advertising you see.
Visit our Privacy Policy to learn more. By continuing to use the site, you agree to this use of cookies and data.
  • în România
  • Lista ţărilor
  • Pe 7 zile
  • Temperatura apei
  • Hartă satelitară
  • Meteo pe hartă
  • Widget-uri
  • user-avatar
    Intrare

    Meteo pe oră la Pisarevo

    Astăzi, 24 Februarie, Duminică

    Timp Temperatura Precipitaţii Vânt Presiune Umiditate
    00:00 -13°C° 0 mm 3 m/s 754 mmHg 88%
    01:00 -13°C° 0 mm 3 m/s 753 mmHg 90%
    02:00 -14°C° 0 mm 3 m/s 753 mmHg 91%
    03:00 -14°C° 0 mm 3 m/s 753 mmHg 93%
    04:00 -13°C° 0 mm 3 m/s 753 mmHg 94%
    05:00 -13°C° 0 mm 3 m/s 752 mmHg 95%
    06:00 -12°C° 0 mm 3 m/s 752 mmHg 95%
    07:00 -12°C° 0 mm 3 m/s 752 mmHg 95%
    08:00 -11°C° 0 mm 4 m/s 752 mmHg 95%
    09:00 -10°C° 0 mm 4 m/s 752 mmHg 94%
    10:00 -9°C° 0 mm 4 m/s 751 mmHg 94%
    11:00 -7°C° 0 mm 3 m/s 751 mmHg 93%
    12:00 -6°C° 0 mm 3 m/s 751 mmHg 92%
    13:00 -5°C° 0 mm 3 m/s 751 mmHg 93%
    14:00 -5°C° 0 mm 3 m/s 751 mmHg 93%
    15:00 -4°C° 0 mm 3 m/s 751 mmHg 93%
    16:00 -4°C° 0 mm 3 m/s 750 mmHg 94%
    17:00 -4°C° 0 mm 3 m/s 750 mmHg 94%
    18:00 -4°C° 0 mm 3 m/s 750 mmHg 95%
    19:00 -2°C° 0.1 mm 3 m/s 750 mmHg 95%
    20:00 -2°C° 0.1 mm 3 m/s 749 mmHg 95%
    21:00 -3°C° 0.1 mm 4 m/s 749 mmHg 95%
    22:00 -2°C° 0 mm 4 m/s 749 mmHg 95%
    23:00 -2°C° 0 mm 4 m/s 748 mmHg 95%

    Mâine, 25 Februarie, Luni

    Timp Temperatura Precipitaţii Vânt Presiune Umiditate
    00:00 -2°C° 0 mm 4 m/s 748 mmHg 95%
    01:00 -2°C° 0 mm 4 m/s 747 mmHg 94%
    02:00 -2°C° 0 mm 5 m/s 746 mmHg 94%
    03:00 -2°C° 0 mm 5 m/s 746 mmHg 93%
    04:00 -2°C° 0.3 mm 5 m/s 745 mmHg 93%
    05:00 -3°C° 0.3 mm 6 m/s 744 mmHg 93%
    06:00 -3°C° 0.3 mm 6 m/s 743 mmHg 93%
    07:00 -3°C° 0.2 mm 6 m/s 742 mmHg 93%
    08:00 -3°C° 0.2 mm 6 m/s 742 mmHg 93%
    09:00 -2°C° 0.2 mm 6 m/s 741 mmHg 94%
    10:00 -2°C° 0.1 mm 6 m/s 741 mmHg 95%
    11:00 -2°C° 0.1 mm 6 m/s 740 mmHg 96%
    12:00 -2°C° 0.1 mm 6 m/s 740 mmHg 98%
    13:00 -1°C° 0.1 mm 5 m/s 740 mmHg 96%
    14:00 -1°C° 0.1 mm 5 m/s 740 mmHg 95%
    15:00 -1°C° 0.1 mm 5 m/s 739 mmHg 93%
    16:00 -1°C° 0.1 mm 5 m/s 739 mmHg 93%
    17:00 -1°C° 0.1 mm 5 m/s 739 mmHg 92%
    18:00 -2°C° 0.1 mm 4 m/s 739 mmHg 91%
    19:00 -2°C° 0.3 mm 4 m/s 739 mmHg 92%
    20:00 -2°C° 0.3 mm 5 m/s 739 mmHg 92%
    21:00 -2°C° 0.3 mm 5 m/s 738 mmHg 92%
    22:00 -2°C° 0.1 mm 4 m/s 738 mmHg 93%
    23:00 -3°C° 0.1 mm 4 m/s 738 mmHg 93%

    Poimâine, 26 Februarie, Marţi

    Timp Temperatura Precipitaţii Vânt Presiune Umiditate
    00:00 -3°C° 0.1 mm 4 m/s 738 mmHg 93%
    01:00 -3°C° 0 mm 4 m/s 737 mmHg 94%
    02:00 -3°C° 0 mm 4 m/s 737 mmHg 94%
    03:00 -2°C° 0 mm 3 m/s 737 mmHg 95%
    04:00 -2°C° 0.1 mm 3 m/s 737 mmHg 95%
    05:00 -2°C° 0.1 mm 3 m/s 737 mmHg 95%
    06:00 -2°C° 0.1 mm 3 m/s 736 mmHg 95%
    07:00 -2°C° 0.1 mm 3 m/s 736 mmHg 95%
    08:00 -3°C° 0.1 mm 4 m/s 736 mmHg 94%
    09:00 -2°C° 0.1 mm 4 m/s 736 mmHg 94%
    10:00 -2°C° 0.1 mm 4 m/s 736 mmHg 94%
    11:00 -2°C° 0.1 mm 4 m/s 736 mmHg 94%
    12:00 -2°C° 0.1 mm 5 m/s 736 mmHg 93%
    13:00 -2°C° 0.1 mm 4 m/s 736 mmHg 93%
    14:00 -2°C° 0.1 mm 4 m/s 735 mmHg 92%
    15:00 -2°C° 0.1 mm 4 m/s 735 mmHg 91%
    16:00 -2°C° 0.1 mm 4 m/s 736 mmHg 91%
    17:00 -2°C° 0.1 mm 4 m/s 736 mmHg 91%
    18:00 -2°C° 0.1 mm 4 m/s 736 mmHg 91%
    19:00 -3°C° 0.1 mm 4 m/s 737 mmHg 92%
    20:00 -3°C° 0.1 mm 4 m/s 737 mmHg 93%
    21:00 -3°C° 0.1 mm 4 m/s 738 mmHg 94%
    22:00 -4°C° 0.1 mm 5 m/s 738 mmHg 93%
    23:00 -4°C° 0.1 mm 5 m/s 739 mmHg 92%

    27 Februarie, Miercuri

    Timp Temperatura Precipitaţii Vânt Presiune Umiditate
    00:00 -4°C° 0.1 mm 6 m/s 739 mmHg 92%
    01:00 -4°C° 0.1 mm 6 m/s 739 mmHg 91%
    02:00 -4°C° 0.1 mm 6 m/s 740 mmHg 91%
    03:00 -4°C° 0.1 mm 6 m/s 740 mmHg 91%
    04:00 -6°C° 0 mm 6 m/s 741 mmHg 90%
    05:00 -8°C° 0 mm 6 m/s 741 mmHg 90%
    06:00 -8°C° 0 mm 5 m/s 741 mmHg 90%
    07:00 -11°C° 0 mm 5 m/s 742 mmHg 88%
    08:00 -12°C° 0 mm 6 m/s 742 mmHg 87%
    09:00 -14°C° 0 mm 6 m/s 743 mmHg 85%
    10:00 -13°C° 0 mm 5 m/s 743 mmHg 86%
    11:00 -13°C° 0 mm 5 m/s 743 mmHg 86%
    12:00 -13°C° 0 mm 5 m/s 744 mmHg 87%
    13:00 -11°C° 0 mm 4 m/s 743 mmHg 87%
    14:00 -11°C° 0 mm 4 m/s 743 mmHg 87%
    15:00 -9°C° 0 mm 3 m/s 743 mmHg 87%
    16:00 -9°C° 0 mm 3 m/s 743 mmHg 88%
    17:00 -10°C° 0 mm 3 m/s 743 mmHg 89%
    18:00 -9°C° 0 mm 2 m/s 743 mmHg 90%
    19:00 -9°C° 0 mm 2 m/s 742 mmHg 91%
    20:00 -9°C° 0 mm 2 m/s 742 mmHg 91%
    21:00 -10°C° 0 mm 3 m/s 741 mmHg 92%
    22:00 -9°C° 0 mm 3 m/s 740 mmHg 92%
    23:00 -10°C° 0 mm 4 m/s 740 mmHg 92%

    28 Februarie, Joi

    Timp Temperatura Precipitaţii Vânt Presiune Umiditate
    00:00 -9°C° 0 mm 4 m/s 739 mmHg 92%
    01:00 -8°C° 0.2 mm 4 m/s 738 mmHg 93%
    02:00 -8°C° 0.2 mm 5 m/s 738 mmHg 93%
    03:00 -7°C° 0.2 mm 5 m/s 737 mmHg 93%
    04:00 -7°C° 0.1 mm 4 m/s 737 mmHg 94%
    05:00 -5°C° 0.1 mm 4 m/s 736 mmHg 94%
    06:00 -5°C° 0.1 mm 4 m/s 736 mmHg 94%
    07:00 -4°C° 0 mm 4 m/s 735 mmHg 94%
    08:00 -4°C° 0 mm 4 m/s 735 mmHg 94%
    09:00 -3°C° 0 mm 4 m/s 735 mmHg 94%
    10:00 -3°C° 0 mm 4 m/s 734 mmHg 93%
    11:00 -3°C° 0 mm 4 m/s 734 mmHg 92%
    12:00 -2°C° 0 mm 4 m/s 733 mmHg 91%
    13:00 -2°C° 0.1 mm 4 m/s 733 mmHg 90%
    14:00 -2°C° 0.1 mm 4 m/s 732 mmHg 90%
    15:00 -1°C° 0.1 mm 3 m/s 732 mmHg 89%
    16:00 -1°C° 0 mm 3 m/s 731 mmHg 91%
    17:00 -2°C° 0 mm 2 m/s 731 mmHg 92%
    18:00 -2°C° 0 mm 2 m/s 731 mmHg 93%
    19:00 -2°C° 0 mm 2 m/s 730 mmHg 93%
    20:00 -2°C° 0 mm 2 m/s 730 mmHg 94%
    21:00 -2°C° 0 mm 2 m/s 730 mmHg 94%
    22:00 -3°C° 0 mm 2 m/s 729 mmHg 94%
    23:00 -2°C° 0 mm 1 m/s 729 mmHg 95%

    1 Martie, Vineri

    Timp Temperatura Precipitaţii Vânt Presiune Umiditate
    00:00 -2°C° 0 mm 1 m/s 728 mmHg 95%
    01:00 -2°C° 0.1 mm 1 m/s 728 mmHg 95%
    02:00 -3°C° 0.1 mm 0 m/s 728 mmHg 96%
    03:00 -4°C° 0.1 mm 0 m/s 727 mmHg 96%
    04:00 -4°C° 0.1 mm 0 m/s 727 mmHg 96%
    05:00 -2°C° 0.1 mm 1 m/s 727 mmHg 96%
    06:00 -2°C° 0.1 mm 1 m/s 727 mmHg 96%
    07:00 -3°C° 0 mm 1 m/s 728 mmHg 96%
    08:00 -5°C° 0 mm 2 m/s 728 mmHg 96%
    09:00 -5°C° 0 mm 2 m/s 728 mmHg 96%
    10:00 -4°C° 0 mm 2 m/s 729 mmHg 95%
    11:00 -3°C° 0 mm 2 m/s 729 mmHg 95%
    12:00 -3°C° 0 mm 2 m/s 729 mmHg 94%
    13:00 -2°C° 0 mm 2 m/s 730 mmHg 94%
    14:00 -2°C° 0 mm 3 m/s 730 mmHg 94%
    15:00 -1°C° 0 mm 3 m/s 730 mmHg 93%
    16:00 -2°C° 0 mm 3 m/s 731 mmHg 94%
    17:00 -2°C° 0 mm 3 m/s 731 mmHg 94%
    18:00 -3°C° 0 mm 2 m/s 732 mmHg 94%
    19:00 -3°C° 0 mm 2 m/s 732 mmHg 94%
    20:00 -3°C° 0 mm 2 m/s 733 mmHg 94%
    21:00 -3°C° 0 mm 2 m/s 733 mmHg 95%
    22:00 -3°C° 0 mm 2 m/s 733 mmHg 94%
    23:00 -3°C° 0 mm 2 m/s 733 mmHg 93%
    Arată mai mult